Fort Sill, OK

8:47 PM CDT on September 23, 2017 (GMT -0500)
Post Army Air Field

Weather History for KFSI - October, 2012

Change the Weather History Date:

Friday, October 12, 2012

  Actual Average Record
Temperature  
Mean Temperature 76 °F -  
Max Temperature 85 °F 79 °F 97 °F (1979)
Min Temperature 69 °F 51 °F 36 °F (1986)
Cooling Degree Days 12    
Growing Degree Days 26 (Base 50)    
Moisture  
Dew Point 68 °F    
Average Humidity 84    
Maximum Humidity 96    
Minimum Humidity 58    
Precipitation  
Precipitation 0.00 in - - ()
Sea Level Pressure  
Sea Level Pressure 30.06 in    
Wind  
Wind Speed 7 mph (SSE)    
Max Wind Speed 14 mph    
Max Gust Speed -    
Visibility 10 miles    
Events      
Averages and records for this station are not official NWS values.
T = Trace of Precipitation, MM = Missing Value Source: NWS Daily Summary

Daily Weather History Graph

Daily Weather History Graph

Search for Another Location

Airport or City:

Trip Planner

Search our weather history database for the weather conditions in past years. The results will help you decide how hot, cold, wet, or windy it might be!

Date:

Astronomy

Oct. 12, 2012 Rise Set
Actual Time 7:37 AM CDT 7:02 PM CDT
Civil Twilight 7:11 AM CDT 7:27 PM CDT
Nautical Twilight 6:42 AM CDT 7:56 PM CDT
Astronomical Twilight 6:13 AM CDT 8:25 PM CDT
Moon 4:28 AM CDT (10/12) 5:07 PM CDT (10/12)
Length of Visible Light 12h 15m
Length of Day
11h 24m
Waning Crescent, 10% of the Moon is Illuminated
Oct 12
Waning Crescent
Oct 15
New
Oct 21
First Quarter
Oct 29
Full
Nov 6
Last Quarter

Hourly Weather History & Observations

Time (CDT) Temp. Heat Index Dew Point Humidity Pressure Visibility Wind Dir Wind Speed Gust Speed Precip Events Conditions
12:55 AM 71.4 °F - 68.4 °F 90% 30.04 in 10.0 mi SSE 8.1 mph - N/A   Mostly Cloudy
1:55 AM 71.1 °F - 68.0 °F 90% 30.03 in 10.0 mi SSE 8.1 mph - N/A   Partly Cloudy
2:55 AM 70.3 °F - 67.5 °F 91% 30.03 in 10.0 mi SSE 6.9 mph - N/A   Scattered Clouds
3:55 AM 70.5 °F - 67.6 °F 91% 30.02 in 10.0 mi South 9.2 mph - N/A   Mostly Cloudy
3:56 AM 69.8 °F - 68.0 °F 94% 30.02 in 10.0 mi South 10.4 mph - N/A   Mostly Cloudy
4:11 AM 71.6 °F - 68.0 °F 88% 30.02 in 10.0 mi South 6.9 mph - N/A   Overcast
4:55 AM 70.5 °F - 68.0 °F 92% 30.03 in 10.0 mi South 6.9 mph - N/A   Overcast
5:04 AM 69.8 °F - 68.0 °F 94% 30.03 in 10.0 mi South 6.9 mph - N/A   Overcast
5:55 AM 70.2 °F - 68.2 °F 93% 30.04 in 10.0 mi South 6.9 mph - N/A   Overcast
6:39 AM 69.8 °F - 68.0 °F 94% 30.06 in 10.0 mi South 3.5 mph - N/A   Overcast
6:47 AM 69.8 °F - 68.0 °F 94% 30.06 in 10.0 mi Calm Calm - N/A   Overcast
6:55 AM 69.8 °F - 68.4 °F 95% 30.06 in 10.0 mi Calm Calm - N/A   Overcast
7:16 AM 69.8 °F - 68.0 °F 94% 30.08 in 10.0 mi Calm Calm - N/A   Overcast
7:18 AM 69.8 °F - 68.0 °F 94% 30.08 in 10.0 mi Calm Calm - N/A   Overcast
7:20 AM 69.8 °F - 68.0 °F 94% 30.08 in 10.0 mi Calm Calm - N/A   Overcast
7:42 AM 69.8 °F - 68.0 °F 94% 30.09 in 10.0 mi East 3.5 mph - N/A   Overcast
7:55 AM 69.1 °F - 67.8 °F 96% 30.09 in 10.0 mi East 4.6 mph - N/A   Overcast
8:11 AM 69.8 °F - 68.0 °F 94% 30.10 in 10.0 mi East 5.8 mph - N/A   Overcast
8:19 AM 69.8 °F - 68.0 °F 94% 30.10 in 10.0 mi East 5.8 mph - N/A   Overcast
8:55 AM 70.0 °F - 68.5 °F 95% 30.11 in 10.0 mi SE 5.8 mph - N/A   Overcast
8:56 AM 69.8 °F - 68.0 °F 94% 30.11 in 10.0 mi SE 5.8 mph - N/A   Overcast
9:26 AM 69.8 °F - 68.0 °F 94% 30.12 in 10.0 mi SSE 6.9 mph - N/A   Overcast
9:53 AM 71.6 °F - 69.8 °F 94% 30.12 in 10.0 mi South 9.2 mph - N/A   Overcast
9:55 AM 72.0 °F - 69.1 °F 91% 30.12 in 10.0 mi SSE 9.2 mph - N/A   Overcast
10:11 AM 71.6 °F - 69.8 °F 94% 30.12 in 10.0 mi South 10.4 mph - N/A   Overcast
10:19 AM 71.6 °F - 68.0 °F 88% 30.12 in 10.0 mi South 10.4 mph - N/A   Overcast
10:34 AM 73.4 °F - 69.8 °F 88% 30.13 in 10.0 mi South 8.1 mph - N/A   Mostly Cloudy
10:36 AM 73.4 °F - 68.0 °F 83% 30.12 in 10.0 mi South 9.2 mph - N/A   Mostly Cloudy
10:39 AM 73.4 °F - 69.8 °F 88% 30.12 in 10.0 mi South 9.2 mph - N/A   Overcast
10:55 AM 72.9 °F - 68.7 °F 87% 30.12 in 10.0 mi South 9.2 mph - N/A   Mostly Cloudy
11:55 AM 76.3 °F - 69.6 °F 80% 30.10 in 10.0 mi South 8.1 mph - N/A   Mostly Cloudy
12:11 PM 77.0 °F - 69.8 °F 78% 30.10 in 10.0 mi South 4.6 mph - N/A   Mostly Cloudy
12:46 PM 80.6 °F 83.9 °F 69.8 °F 70% 30.09 in 10.0 mi SSE 9.2 mph - N/A   Mostly Cloudy
12:55 PM 80.6 °F 84.1 °F 70.3 °F 71% 30.08 in 10.0 mi South 8.1 mph - N/A   Mostly Cloudy
1:55 PM 82.2 °F 86.0 °F 69.8 °F 66% 30.04 in 10.0 mi SSE 6.9 mph - N/A   Partly Cloudy
2:55 PM 84.0 °F 88.1 °F 69.6 °F 62% 30.01 in 10.0 mi SSE 11.5 mph - N/A   Mostly Cloudy
3:55 PM 84.9 °F 88.5 °F 68.7 °F 58% 30.00 in 10.0 mi SSE 11.5 mph - N/A   Overcast
4:55 PM 82.8 °F 86.0 °F 68.7 °F 62% 29.98 in 10.0 mi SSE 12.7 mph - N/A   Scattered Clouds
5:55 PM 82.6 °F 86.1 °F 69.1 °F 64% 29.98 in 10.0 mi SSE 9.2 mph - N/A   Overcast
6:55 PM 80.4 °F 82.8 °F 67.3 °F 64% 29.99 in 10.0 mi SSE 13.8 mph - N/A   Mostly Cloudy
7:55 PM 77.7 °F - 66.4 °F 68% 30.00 in 10.0 mi SSE 9.2 mph - N/A   Mostly Cloudy
8:55 PM 77.0 °F - 66.0 °F 69% 30.01 in 10.0 mi SSE 11.5 mph - N/A   Mostly Cloudy
9:55 PM 75.7 °F - 65.1 °F 69% 30.00 in 10.0 mi SSE 13.8 mph - N/A   Partly Cloudy
10:55 PM 74.1 °F - 65.1 °F 73% 30.00 in 10.0 mi SSE 13.8 mph - N/A   Partly Cloudy
11:55 PM 72.5 °F - 65.1 °F 78% 29.99 in 10.0 mi SSE 13.8 mph - N/A   Clear